{"data":{"norad_id":57250,"epoch":"2026-05-25T03:29:01.735872Z","epoch_age_seconds":62753,"freshness":"FRESH","line1":"1 57250U 23094AJ  26145.14515898  .00000691  00000+0  34635-4 0  9996","line2":"2 57250  43.0032 308.0409 0001075 266.8779  93.1949 15.27578559158930","mean_motion":15.27578559,"eccentricity":0.0001075,"inclination_deg":43.0032,"raan_deg":308.0409,"arg_perigee_deg":266.8779,"mean_anomaly_deg":93.1949,"bstar":3.4635e-5,"rev_number":15893,"period_min":94.266837637645,"perigee_km":482.31583294627,"apogee_km":483.79098888462,"semimajor_km":6861.1904109154,"source":"CELESTRAK","updated_at":"2026-05-25T13:38:18.277055Z"}}